When you browse on this site, cookies collect data to enhance your experience and personalize the content and advertising you see.
Visit our Privacy Policy to learn more. By continuing to use the site, you agree to this use of cookies and data.
  • In Romania
  • List of Countries
  • For 7 days
  • Water Temperature
  • Satellite Maps
  • Weather Map
  • Weather Widgets
  • user-avatar
    Login

    Hourly Weather Libourne

    Today, 18 April, Thursday

    Time Temperature Precipitation Wind Pressure Humidity
    00:00 +12°C° 0 mm 4 mps 756 mmHg 71%
    01:00 +11°C° 0 mm 4 mps 756 mmHg 72%
    02:00 +11°C° 0 mm 3 mps 756 mmHg 74%
    03:00 +11°C° 0 mm 3 mps 756 mmHg 76%
    04:00 +10°C° 0 mm 3 mps 756 mmHg 78%
    05:00 +10°C° 0 mm 3 mps 756 mmHg 79%
    06:00 +10°C° 0 mm 2 mps 756 mmHg 83%
    07:00 +12°C° 0 mm 3 mps 757 mmHg 78%
    08:00 +14°C° 0 mm 4 mps 757 mmHg 72%
    09:00 +15°C° 0 mm 4 mps 757 mmHg 67%
    10:00 +18°C° 0 mm 4 mps 757 mmHg 63%
    11:00 +20°C° 0 mm 4 mps 757 mmHg 60%
    12:00 +21°C° 0 mm 4 mps 757 mmHg 56%
    13:00 +21°C° 0 mm 3 mps 757 mmHg 56%
    14:00 +22°C° 0 mm 3 mps 757 mmHg 55%
    15:00 +22°C° 0 mm 3 mps 757 mmHg 54%
    16:00 +21°C° 0 mm 3 mps 757 mmHg 59%
    17:00 +20°C° 0 mm 3 mps 757 mmHg 63%
    18:00 +19°C° 0 mm 3 mps 757 mmHg 67%
    19:00 +18°C° 0 mm 3 mps 758 mmHg 66%
    20:00 +17°C° 0 mm 3 mps 758 mmHg 65%
    21:00 +16°C° 0 mm 3 mps 759 mmHg 64%
    22:00 +16°C° 0 mm 3 mps 759 mmHg 63%
    23:00 +14°C° 0 mm 3 mps 759 mmHg 63%

    Tomorrow, 19 April, Friday

    Time Temperature Precipitation Wind Pressure Humidity
    00:00 +13°C° 0 mm 3 mps 759 mmHg 62%
    01:00 +13°C° 0 mm 3 mps 759 mmHg 61%
    02:00 +13°C° 0 mm 3 mps 759 mmHg 59%
    03:00 +13°C° 0 mm 3 mps 759 mmHg 58%
    04:00 +13°C° 0 mm 3 mps 760 mmHg 59%
    05:00 +13°C° 0 mm 3 mps 760 mmHg 60%
    06:00 +13°C° 0 mm 3 mps 760 mmHg 61%
    07:00 +15°C° 0 mm 4 mps 760 mmHg 58%
    08:00 +17°C° 0 mm 5 mps 761 mmHg 55%
    09:00 +19°C° 0 mm 6 mps 761 mmHg 52%
    10:00 +21°C° 0 mm 6 mps 761 mmHg 50%
    11:00 +22°C° 0 mm 6 mps 761 mmHg 48%
    12:00 +23°C° 0 mm 6 mps 761 mmHg 46%
    13:00 +23°C° 0 mm 6 mps 761 mmHg 46%
    14:00 +25°C° 0 mm 5 mps 761 mmHg 47%
    15:00 +25°C° 0 mm 5 mps 761 mmHg 47%
    16:00 +23°C° 0 mm 4 mps 762 mmHg 52%
    17:00 +22°C° 0 mm 3 mps 762 mmHg 57%
    18:00 +20°C° 0 mm 2 mps 762 mmHg 62%
    19:00 +19°C° 0 mm 2 mps 763 mmHg 65%
    20:00 +17°C° 0 mm 2 mps 763 mmHg 67%
    21:00 +15°C° 0 mm 2 mps 764 mmHg 69%
    22:00 +14°C° 0 mm 2 mps 764 mmHg 68%
    23:00 +14°C° 0 mm 2 mps 764 mmHg 67%

    Day after tomorrow, 20 April, Saturday

    Time Temperature Precipitation Wind Pressure Humidity
    00:00 +13°C° 0 mm 2 mps 764 mmHg 66%
    01:00 +12°C° 0 mm 2 mps 764 mmHg 66%
    02:00 +12°C° 0 mm 2 mps 763 mmHg 65%
    03:00 +10°C° 0 mm 2 mps 763 mmHg 64%
    04:00 +10°C° 0 mm 2 mps 763 mmHg 65%
    05:00 +10°C° 0 mm 2 mps 763 mmHg 66%
    06:00 +10°C° 0 mm 2 mps 763 mmHg 68%
    07:00 +14°C° 0 mm 2 mps 763 mmHg 63%
    08:00 +16°C° 0 mm 3 mps 763 mmHg 58%
    09:00 +18°C° 0 mm 3 mps 763 mmHg 53%
    10:00 +20°C° 0 mm 3 mps 763 mmHg 50%
    11:00 +21°C° 0 mm 3 mps 763 mmHg 46%
    12:00 +24°C° 0 mm 3 mps 762 mmHg 43%
    13:00 +24°C° 0 mm 3 mps 762 mmHg 43%
    14:00 +24°C° 0 mm 3 mps 761 mmHg 42%
    15:00 +25°C° 0 mm 3 mps 761 mmHg 42%
    16:00 +24°C° 0 mm 2 mps 761 mmHg 47%
    17:00 +23°C° 0 mm 1 mps 761 mmHg 53%
    18:00 +22°C° 0 mm 1 mps 761 mmHg 58%
    19:00 +20°C° 0.4 mm 1 mps 761 mmHg 65%
    20:00 +18°C° 0.4 mm 1 mps 761 mmHg 72%
    21:00 +15°C° 0.4 mm 1 mps 761 mmHg 79%
    22:00 +14°C° 0.7 mm 1 mps 761 mmHg 80%
    23:00 +14°C° 0.7 mm 1 mps 761 mmHg 81%

    21 April, Sunday

    Time Temperature Precipitation Wind Pressure Humidity
    00:00 +14°C° 0.7 mm 1 mps 761 mmHg 81%
    01:00 +13°C° 0.2 mm 1 mps 761 mmHg 82%
    02:00 +13°C° 0.2 mm 1 mps 760 mmHg 82%
    03:00 +13°C° 0.2 mm 1 mps 760 mmHg 83%
    04:00 +12°C° 0 mm 2 mps 760 mmHg 83%
    05:00 +12°C° 0 mm 2 mps 760 mmHg 83%
    06:00 +12°C° 0 mm 2 mps 760 mmHg 83%
    07:00 +14°C° 0 mm 2 mps 759 mmHg 76%
    08:00 +15°C° 0 mm 2 mps 759 mmHg 69%
    09:00 +17°C° 0 mm 2 mps 759 mmHg 62%
    10:00 +18°C° 0 mm 2 mps 759 mmHg 58%
    11:00 +20°C° 0 mm 3 mps 759 mmHg 54%
    12:00 +21°C° 0 mm 3 mps 758 mmHg 50%
    13:00 +21°C° 0 mm 3 mps 758 mmHg 48%
    14:00 +22°C° 0 mm 3 mps 757 mmHg 47%
    15:00 +23°C° 0 mm 2 mps 757 mmHg 45%
    16:00 +21°C° 0.1 mm 2 mps 757 mmHg 52%
    17:00 +20°C° 0.1 mm 2 mps 757 mmHg 60%
    18:00 +19°C° 0.1 mm 2 mps 756 mmHg 67%
    19:00 +17°C° 0.1 mm 2 mps 757 mmHg 70%
    20:00 +16°C° 0.1 mm 2 mps 757 mmHg 73%
    21:00 +15°C° 0.1 mm 2 mps 757 mmHg 75%
    22:00 +15°C° 0 mm 2 mps 757 mmHg 76%
    23:00 +15°C° 0 mm 2 mps 756 mmHg 77%

    22 April, Monday

    Time Temperature Precipitation Wind Pressure Humidity
    00:00 +14°C° 0 mm 1 mps 756 mmHg 77%
    01:00 +13°C° 0 mm 1 mps 755 mmHg 80%
    02:00 +13°C° 0 mm 2 mps 755 mmHg 83%
    03:00 +12°C° 0 mm 2 mps 754 mmHg 85%
    04:00 +12°C° 0 mm 2 mps 754 mmHg 85%
    05:00 +12°C° 0 mm 2 mps 754 mmHg 85%
    06:00 +12°C° 0 mm 2 mps 753 mmHg 85%
    07:00 +14°C° 0 mm 2 mps 753 mmHg 78%
    08:00 +14°C° 0 mm 3 mps 753 mmHg 71%
    09:00 +17°C° 0 mm 3 mps 753 mmHg 64%
    10:00 +18°C° 0.1 mm 3 mps 752 mmHg 60%
    11:00 +20°C° 0.1 mm 4 mps 751 mmHg 56%
    12:00 +21°C° 0.1 mm 4 mps 751 mmHg 52%
    13:00 +21°C° 0.2 mm 4 mps 750 mmHg 51%
    14:00 +21°C° 0.2 mm 4 mps 749 mmHg 51%
    15:00 +21°C° 0.2 mm 5 mps 749 mmHg 51%
    16:00 +21°C° 0.1 mm 4 mps 749 mmHg 55%
    17:00 +20°C° 0.1 mm 4 mps 749 mmHg 60%
    18:00 +19°C° 0.1 mm 3 mps 748 mmHg 65%
    19:00 +17°C° 0 mm 3 mps 749 mmHg 64%
    20:00 +16°C° 0 mm 3 mps 749 mmHg 64%
    21:00 +14°C° 0 mm 3 mps 749 mmHg 63%
    22:00 +13°C° 0 mm 3 mps 749 mmHg 62%
    23:00 +12°C° 0 mm 3 mps 749 mmHg 61%

    23 April, Tuesday

    Time Temperature Precipitation Wind Pressure Humidity
    00:00 +12°C° 0 mm 3 mps 748 mmHg 60%
    01:00 +12°C° 0 mm 3 mps 748 mmHg 63%
    02:00 +11°C° 0 mm 3 mps 748 mmHg 65%
    03:00 +11°C° 0 mm 3 mps 748 mmHg 68%
    04:00 +11°C° 0 mm 3 mps 747 mmHg 70%
    05:00 +11°C° 0 mm 3 mps 747 mmHg 72%
    06:00 +11°C° 0 mm 3 mps 747 mmHg 74%
    07:00 +13°C° 0 mm 4 mps 747 mmHg 70%
    08:00 +15°C° 0 mm 5 mps 747 mmHg 65%
    09:00 +17°C° 0 mm 5 mps 747 mmHg 60%
    10:00 +20°C° 0 mm 5 mps 747 mmHg 57%
    11:00 +21°C° 0 mm 5 mps 747 mmHg 55%
    12:00 +22°C° 0 mm 4 mps 747 mmHg 52%
    13:00 +23°C° 0 mm 4 mps 747 mmHg 50%
    14:00 +24°C° 0 mm 3 mps 747 mmHg 48%
    15:00 +25°C° 0 mm 3 mps 746 mmHg 46%
    16:00 +24°C° 0 mm 3 mps 747 mmHg 52%
    17:00 +23°C° 0 mm 2 mps 747 mmHg 57%
    18:00 +21°C° 0 mm 2 mps 747 mmHg 63%
    19:00 +20°C° 0 mm 2 mps 748 mmHg 67%
    20:00 +18°C° 0 mm 3 mps 749 mmHg 71%
    21:00 +17°C° 0 mm 3 mps 749 mmHg 75%
    22:00 +16°C° 0.3 mm 3 mps 750 mmHg 79%
    23:00 +16°C° 0.3 mm 3 mps 750 mmHg 84%
    Show more